Webcams

EDPO Webcam Blick Richtung Osten (local time)

Webcam

Info zum Bild:

  • Blick zum Kloster Mariahilf, Entfernung ca. 3km
  • Blick zur Kirche St. Johannes, Entfernung ca. 1km
  • Blick zu den beiden Windrädern, Entfernung ca. 6km

EDPO Webcam Blick Richtung Westen (local time)

Webcam

Info zum Bild:

  • Blick zum Tyrolsberg, Entfernung ca. 3,5km

Dillberg Webcam Blick Richtung Westen zum Sender (local time)

Webcam

Info zum Bild:

  • Blick zum Dillberg Sender, Entfernung ca. 0,6 km
  • Höhe 2.716 ft über MSL Hindernis Höhe Sender (laut ICAO Karte)
  • Höhe 1.322 ft über EDPO Höhe Sender
  • Nord Platzrundenhöhe EDPO 2.200 ft

Dillberg Webcam Blick Richtung Osten zu EDPO (local time)

Webcam

Info zum Bild:

  • Blick vom Dillberg Richtung Neumarkt, Höhe 555ft über EDPO

Nürnberger Fernsehturm (Rundum CAM)


METAR Informationen der nächstgelegenen Flughäfen


EDDN / Flughafen Nürnberg „Albrecht Dürer“

EDDN 020250Z AUTO 23004KT 9999 -SHRA FEW016 FEW///TCU 12/10 Q1019

ETIC / Fliegerhorst Grafenwöhr AAF

ETIC 020255Z AUTO 00000KT 9999 SCT014 SCT020 BKN028 BKN210 10/09 A3005 RMK AO2 SLP181 T00960093 52009 $

ETIH / Fliegerhorst Hohenfels AAF

ETIH 020255Z AUTO 00000KT 9000 BR FEW014 SCT019 BKN035 BKN047 11/10 A3009 RMK AO2 RAB38E44 SLP195 P0004 60004 T01110098 52008 PWINO $